This is the latest recevied weather packets stored in our database for station/object KO4LCK. If no packets are shown the sender has not sent any weather packets the latest 1 day(s).
| Time | Temp. | Humidity | Pressure | Rain* | Wind** | Luminosity | Snow |
|---|---|---|---|---|---|---|---|
| 1778070271 | 20° C | 78% | 1014.3 hPa | 0 mm | - | 63 W/m² | - |
| 1778069666 | 20° C | 78% | 1014.2 hPa | 0 mm | - | 52 W/m² | - |
| 1778069363 | 20° C | 78% | 1014.1 hPa | 0 mm | - | 50 W/m² | - |
| 1778068154 | 20° C | 78% | 1014 hPa | 0 mm | - | 13 W/m² | - |
| 1778067851 | 20° C | 78% | 1014.1 hPa | 0 mm | - | 10 W/m² | - |
| 1778067550 | 20° C | 78% | 1014.1 hPa | 0 mm | - | 15 W/m² | - |
| 1778067247 | 20° C | 77% | 1014 hPa | 0 mm | - | 17 W/m² | - |
| 1778066036 | 20° C | 76% | 1013.8 hPa | 0 mm | - | 4 W/m² | - |
| 1778065733 | 20° C | 77% | 1013.8 hPa | 0 mm | - | 4 W/m² | - |
| 1778065430 | 20° C | 76% | 1013.6 hPa | 0 mm | - | 3 W/m² | - |
| 1778065127 | 20° C | 76% | 1013.6 hPa | 0 mm | - | 2 W/m² | - |
| 1778064521 | 20° C | 76% | 1013.3 hPa | 0 mm | - | 1 W/m² | - |
| 1778063916 | 20° C | 75% | 1013.3 hPa | 0 mm | - | 0 W/m² | - |
| 1778063613 | 20° C | 76% | 1013.3 hPa | 0 mm | - | 0 W/m² | - |
| 1778062705 | 20° C | 74% | 1013.2 hPa | 0 mm | - | 0 W/m² | - |
| 1778062401 | 20° C | 74% | 1013.2 hPa | 0 mm | - | 0 W/m² | - |
| 1778061496 | 20° C | 75% | 1013 hPa | 0 mm | - | 0 W/m² | - |
| 1778060588 | 20° C | 74% | 1012.9 hPa | 0 mm | - | 0 W/m² | - |
| 1778059378 | 20.56° C | 74% | 1012.8 hPa | 0 mm | - | 0 W/m² | - |
| 1778059075 | 20.56° C | 74% | 1012.7 hPa | 0 mm | - | 0 W/m² | - |
| 1778058772 | 20.56° C | 74% | 1012.4 hPa | 0 mm | - | 0 W/m² | - |
| 1778058470 | 20.56° C | 74% | 1012.4 hPa | 0 mm | - | 0 W/m² | - |
| 1778058167 | 20° C | 74% | 1012.4 hPa | 0 mm | - | 0 W/m² | - |
| 1778057864 | 20° C | 74% | 1012.7 hPa | 0 mm | - | 0 W/m² | - |
| 1778057560 | 20° C | 74% | 1012.6 hPa | 0 mm | - | 0 W/m² | - |
* Rain latest hour (hover to see other rain measurements)
** Current wind speed in m/s (hover to see current wind gust speed)